This demonstration page uses our WeatherBlox Daily Observations layout. Learn more.

Left ArrowRight Arrow

Hourly Observations for March 14, 2015

Temp ( °F °C ) Dew Point ( °F °C ) Humidity (%) Winds ( mph kmh ) Pressure ( in mb ) Visibility ( mi km ) Precip ( " mm )
12:51 am 00:51 Clear 58 14.4 32 0 38 38 E 10 17 30.07 1018 10 16 0.00 0.00
1:51 am 01:51 Clear 60 15.6 32 0 35 35 E 9 15 30.08 1019 10 16 0.00 0.00
2:51 am 02:51 Clear 60 15.6 31 -0.6 33 33 E 10 17 30.09 1019 10 16 0.00 0.00
3:51 am 03:51 Clear 51 10.6 34 1.1 52 52 SW 5 7 30.12 1020 10 16 0.00 0.00
4:51 am 04:51 Clear 52 11.1 33 0.6 49 49 S 3 6 30.13 1020 10 16 0.00 0.00
5:51 am 05:51 Clear 53 11.7 33 0.6 47 47 SSE 9 15 30.15 1021 10 16 0.00 0.00
6:51 am 06:51 Sunny 54 12.2 33 0.6 45 45 ESE 8 13 30.17 1022 10 16 0.00 0.00
7:51 am 07:51 Sunny 60 15.6 33 0.6 36 36 SE 12 19 30.18 1022 10 16 0.00 0.00
8:51 am 08:51 Sunny 65 18.3 33 0.6 31 31 ESE 15 24 30.19 1023 10 16 0.00 0.00
9:51 am 09:51 Sunny 69 20.6 30 -1.1 23 23 E 17 28 30.18 1022 10 16 0.00 0.00
10:51 am 10:51 Sunny 72 22.2 27 -2.8 19 19 ESE 17 28 30.17 1022 10 16 0.00 0.00
11:51 am 11:51 Mostly Sunny 74 23.3 26 -3.3 17 17 SE 20 31 30.13 1020 10 16 0.00 0.00
12:51 pm 12:51 Mostly Sunny 74 23.3 24 -4.4 15 15 E 8 13 30.09 1019 10 16 0.00 0.00
1:51 pm 13:51 Partly Cloudy 76 24.4 25 -3.9 15 15 SE 20 31 30.05 1018 10 16 0.00 0.00
2:51 pm 14:51 Mostly Cloudy 75 23.9 25 -3.9 15 15 SSE 7 11 30.01 1016 10 16 0.00 0.00
3:51 pm 15:51 Partly Cloudy 76 24.4 23 -5 14 14 E 10 17 30.02 1017 10 16 0.00 0.00
4:51 pm 16:51 Partly Cloudy 74 23.3 23 -5 15 15 SSE 12 19 30.01 1016 10 16 0.00 0.00
5:51 pm 17:51 Sunny 72 22.2 22 -5.6 15 15 ESE 9 15 30.02 1017 10 16 0.00 0.00
6:51 pm 18:51 Clear 67 19.4 23 -5 19 19 SE 7 11 30.04 1017 10 16 0.00 0.00
7:51 pm 19:51 Mostly Cloudy 64 17.8 24 -4.4 22 22 ESE 7 11 30.07 1018 10 16 0.00 0.00
8:51 pm 20:51 Clear 62 16.7 23 -5 22 22 E 8 13 30.09 1019 10 16 0.00 0.00
9:51 pm 21:51 Clear 60 15.6 23 -5 24 24 S 9 15 30.11 1020 10 16 0.00 0.00
10:51 pm 22:51 Clear 54 12.2 25 -3.9 33 33 SSW 3 6 30.12 1020 10 16 0.00 0.00
11:51 pm 23:51 Clear 54 12.2 24 -4.4 31 31 Calm 30.12 1020 10 16 0.00 0.00

Powered by AerisWeather